Theta_e
294 295 293 293 292 291 291 291 291 291 292 291 289 290 293 292 282 283 295 298 297 297 298 302 306 309 309 311 313 315 315 315 315 314 313 313 313 313 313 313 313 312 312 312 312 312 312 312 312 310 310 310 309 308 308 307 307 307 307 306 306 305 305 304 304 304 303 303 303 303 302 302 301 301 301 301 301 302 302 301 300 298 297 296 294 294 293
293 295 295 293 292 291 291 291 291 292 292 291 292 294 296 294 291 297 299 297 297 298 300 305 308 310 311 312 315 315 314 314 314 313 313 313 313 313 313 312 312 312 312 312 312 312 312 312 311 311 309 308 308 307 307 307 307 307 307 306 305 304 304 303 303 303 303 303 302 302 301 301 301 301 301 301 301 300 300 300 299 298 297 296 295 294 293
292 295 297 294 293 291 289 291 292 292 292 292 293 293 294 296 294 298 299 296 294 297 304 305 308 312 313 313 313 314 314 314 313 312 312 312 312 313 313 313 312 312 312 312 312 312 311 311 311 310 308 308 308 307 307 307 307 307 306 305 304 304 303 303 303 303 302 302 302 301 301 301 300 301 301 301 300 300 300 299 298 298 296 295 294 293 292
287 295 296 297 295 292 291 289 291 291 291 290 291 288 293 292 291 295 295 291 291 296 305 307 311 311 311 311 312 313 313 313 313 312 311 311 311 312 312 312 312 312 312 312 312 311 311 311 311 309 308 308 307 306 306 306 307 307 305 304 303 303 302 302 302 301 301 301 301 301 301 300 301 301 301 300 300 299 299 298 298 297 295 295 294 293 292
285 294 295 295 296 292 288 284 290 293 294 294 295 295 296 295 296 291 285 287 292 298 306 308 309 310 310 311 312 312 313 313 313 312 311 311 312 312 312 311 311 311 312 312 312 312 312 311 310 308 308 307 306 306 306 307 307 305 304 303 302 302 301 301 301 301 301 301 300 300 299 300 301 300 300 300 299 299 299 299 297 296 295 294 293 292 291
285 293 294 293 287 282 283 295 301 297 293 293 293 292 294 297 297 293 292 293 300 304 305 308 308 309 310 312 314 315 314 312 312 312 312 312 312 312 312 312 312 312 312 312 312 312 312 310 310 309 309 308 307 307 307 307 305 304 303 302 301 300 300 300 300 300 300 300 299 299 299 300 300 299 299 299 299 299 299 299 298 297 296 295 293 292 291
284 289 289 283 278 282 295 302 304 305 301 299 295 295 297 300 298 299 296 296 298 304 307 310 310 312 313 314 314 314 315 314 313 312 312 312 311 312 312 312 312 312 312 311 311 311 311 310 309 309 308 308 307 307 306 305 304 303 302 300 299 299 299 299 299 299 299 298 298 299 299 299 299 298 298 298 298 298 298 298 297 297 296 294 294 294 292
287 286 284 278 279 292 301 300 302 305 300 297 295 293 297 298 296 298 295 296 296 300 304 310 312 312 313 314 315 315 315 315 314 313 312 312 312 311 312 312 312 312 311 311 311 311 311 309 309 308 307 308 307 306 306 304 303 302 301 299 298 298 298 298 298 298 298 298 298 298 299 298 298 298 297 297 297 297 297 296 297 297 297 296 294 292 292
281 282 281 283 294 295 294 295 297 298 294 295 290 284 289 297 296 298 296 296 298 298 305 308 309 311 313 310 310 315 315 315 315 315 314 314 313 313 313 313 312 313 312 311 311 311 310 310 309 307 307 307 306 305 304 303 301 300 299 298 297 297 298 298 298 298 298 298 298 298 298 298 297 297 296 296 296 297 296 295 295 294 295 296 295 293 292
284 282 282 283 283 283 284 295 301 303 305 304 301 293 287 298 300 299 297 296 296 298 299 306 308 310 308 304 305 312 315 315 315 315 315 315 314 313 313 313 313 312 312 312 312 310 309 309 307 307 307 307 305 304 302 301 300 299 298 297 297 297 297 298 298 298 298 298 298 298 298 297 296 296 296 296 296 297 295 294 293 293 294 294 295 295 293
284 283 281 280 280 282 290 297 300 302 303 303 300 291 286 294 299 300 298 297 297 298 297 301 305 307 302 302 307 312 314 314 314 313 313 314 314 313 313 312 311 311 311 311 311 309 309 307 306 307 306 306 305 303 302 300 299 298 297 297 297 297 297 297 298 298 298 298 298 298 297 296 297 296 296 296 297 296 295 294 294 293 294 292 292 292 293
283 282 281 281 283 285 292 298 300 301 304 302 292 283 281 293 302 304 300 298 298 298 298 302 303 304 297 302 308 313 314 314 314 313 313 313 312 312 313 312 312 312 312 311 309 307 307 306 306 306 306 305 304 303 302 300 298 297 296 297 297 297 297 298 297 297 298 298 298 298 297 297 297 296 297 297 296 296 295 295 294 294 293 293 292 292 293
283 285 282 284 286 291 299 301 300 299 304 297 284 281 285 301 305 307 305 299 299 300 303 303 298 301 303 308 313 314 314 313 313 313 314 314 313 312 312 311 309 311 311 311 308 307 307 306 306 306 306 305 304 303 301 299 297 296 296 297 297 297 297 297 297 297 297 298 298 298 297 297 297 297 297 296 296 296 295 295 294 294 294 293 293 292 292
282 282 281 282 286 293 302 301 304 303 297 286 282 292 303 306 306 306 306 301 300 301 308 305 305 307 310 314 315 314 314 313 313 313 313 313 312 313 311 309 310 311 311 310 307 307 307 306 306 306 305 304 303 302 300 297 296 297 297 297 297 296 297 297 297 297 297 298 299 299 298 297 296 296 296 297 296 295 295 295 295 295 295 295 293 293 292
285 284 282 281 281 291 306 303 301 300 287 286 297 305 306 309 307 306 306 305 304 305 307 309 311 311 312 313 313 313 313 312 312 312 311 311 311 310 309 309 310 310 310 308 307 306 306 306 306 305 305 303 302 301 298 296 297 297 297 297 297 297 296 297 297 297 298 298 298 299 298 298 297 296 296 296 296 296 296 295 295 294 294 294 293 293 293
281 282 280 281 286 293 307 300 289 299 302 303 307 307 303 306 306 306 307 308 309 311 310 310 311 311 311 312 312 312 312 312 312 312 312 311 311 311 311 311 310 310 310 308 306 306 306 306 306 306 304 302 301 299 297 297 297 297 297 297 296 296 297 297 297 298 298 298 298 298 298 297 297 296 295 295 296 296 296 296 294 294 294 294 293 292 292
286 285 291 297 301 305 308 308 305 307 309 310 311 309 307 306 306 309 308 309 310 311 312 312 311 310 311 311 312 312 311 311 311 311 311 311 310 310 310 310 309 309 309 306 306 305 306 306 306 305 304 302 300 297 297 297 297 297 296 296 296 296 296 297 297 298 297 297 297 297 297 297 296 296 295 295 294 296 296 296 295 294 293 294 293 292 292
300 300 302 304 304 306 307 308 308 308 308 310 311 309 308 309 310 310 309 310 312 312 312 311 309 311 311 311 311 311 311 311 311 311 312 311 311 310 310 309 309 309 308 306 305 304 305 306 305 304 303 301 298 297 297 297 297 297 296 296 296 296 296 296 297 297 297 297 296 296 297 297 296 295 295 295 295 295 296 296 295 295 294 292 292 292 291
290 287 299 301 303 306 305 306 308 308 309 309 310 309 309 310 311 311 313 312 312 312 312 311 310 310 311 310 310 310 310 311 311 311 310 310 310 310 309 309 308 308 307 306 305 304 303 304 303 303 302 301 299 298 297 297 297 297 297 297 296 296 296 296 296 296 296 295 295 295 296 296 296 296 296 296 297 296 296 296 295 294 293 292 292 291 291
288 292 300 302 304 305 308 305 303 305 307 308 308 307 309 310 309 310 311 312 313 312 311 310 311 310 310 310 310 310 310 311 311 310 310 310 309 310 310 309 309 307 306 306 304 304 303 302 302 302 301 299 299 298 298 298 298 297 297 296 296 296 296 296 295 295 295 292 294 294 295 296 296 295 296 297 296 295 294 294 293 292 291 290 291 292 291
298 300 301 301 301 302 304 306 307 308 307 307 307 308 309 309 308 309 311 311 312 311 310 310 310 310 309 310 310 310 309 310 310 310 310 310 310 310 309 309 308 307 306 306 305 304 303 303 302 300 300 300 299 298 298 298 298 297 296 295 296 295 295 295 295 295 295 295 295 295 295 295 295 295 295 296 294 293 293 292 293 294 293 293 293 292 290
286 290 295 299 290 290 301 305 306 307 309 308 307 307 307 308 307 308 309 311 312 312 311 310 310 309 309 309 310 310 309 310 309 309 310 310 309 309 309 310 308 306 306 305 305 304 302 302 300 300 299 299 299 298 298 298 298 297 296 296 295 295 295 295 295 295 295 295 295 295 294 293 292 291 290 294 294 292 289 290 291 291 291 290 293 291 290
287 298 302 302 300 300 304 306 308 307 307 308 308 307 307 307 308 308 307 308 309 310 311 311 310 309 309 309 310 310 309 308 309 310 310 309 309 308 309 308 305 305 305 305 304 301 301 300 300 299 299 299 299 299 298 298 298 297 296 295 295 294 294 294 294 295 295 295 295 295 295 294 292 290 291 290 289 290 290 290 290 289 289 289 290 291 293
302 304 305 306 304 303 305 307 307 308 309 309 307 308 308 308 308 308 308 309 308 309 310 312 311 310 309 309 309 308 308 309 309 309 309 309 308 308 308 307 304 303 302 302 301 299 300 300 300 299 299 299 299 299 299 298 298 297 296 296 294 294 294 295 294 295 296 295 295 295 295 295 293 291 289 289 289 289 289 289 289 289 288 288 288 288 290
301 306 306 307 306 306 307 307 307 307 308 310 307 306 306 307 308 308 308 308 308 309 308 310 310 310 309 308 308 308 308 308 308 308 306 306 306 307 307 305 302 302 302 301 300 299 300 300 299 299 299 299 299 299 298 298 298 297 296 296 295 295 295 295 295 295 295 295 295 295 296 295 294 293 291 289 288 288 289 289 289 289 289 289 288 287 286
306 305 306 307 307 305 305 306 306 305 305 307 309 309 308 307 306 308 308 308 308 309 308 309 309 309 310 309 308 307 308 308 306 305 307 306 306 305 306 304 302 302 302 300 299 299 299 299 299 299 298 298 298 298 299 298 298 297 297 296 296 296 296 296 295 295 295 295 295 296 296 296 294 293 292 292 291 289 287 287 289 289 290 289 289 288 288
306 306 305 303 303 304 306 303 302 305 305 306 308 308 309 307 306 306 308 308 308 308 309 309 309 310 309 308 307 306 307 305 306 307 307 306 305 305 305 304 303 302 300 299 298 298 297 298 298 298 298 298 299 299 299 298 298 298 297 297 297 293 291 293 296 295 294 295 296 296 296 295 293 292 292 292 291 290 288 287 287 286 286 288 288 289 288
305 305 306 300 299 301 303 305 306 306 306 306 306 307 306 306 306 304 306 306 306 306 307 309 308 306 305 305 305 304 305 305 306 306 306 305 305 305 304 303 302 300 299 298 298 297 298 298 298 298 298 298 299 299 299 299 298 298 298 298 297 296 296 295 295 294 294 295 296 296 296 295 294 292 292 291 291 290 289 288 287 287 286 287 287 289 289
303 304 305 306 304 303 303 304 304 304 303 303 305 305 305 305 304 304 305 305 306 307 306 306 306 305 306 304 305 305 304 304 304 304 303 303 302 302 302 300 300 299 298 297 298 298 298 298 298 297 298 299 299 299 300 299 299 298 297 297 296 296 296 296 296 295 295 295 296 297 294 293 294 293 292 291 291 291 289 289 288 288 288 288 289 290 289
303 303 304 303 303 302 302 302 302 303 302 303 304 304 305 305 304 303 304 304 304 304 305 305 305 305 305 304 303 303 303 302 302 302 302 301 301 300 300 299 298 298 298 298 298 298 298 297 297 297 297 299 299 299 300 300 299 299 298 298 297 296 296 296 296 297 297 297 296 291 292 294 295 295 293 292 292 291 289 289 289 288 288 288 289 288 287
304 305 305 304 304 302 302 302 302 302 302 302 301 302 302 303 302 303 303 304 303 303 304 305 304 304 304 303 302 301 301 301 300 300 300 300 300 300 300 300 298 296 296 297 298 298 297 297 297 297 298 299 300 300 300 300 300 300 299 298 297 293 291 291 292 297 296 297 295 295 294 294 294 293 290 292 291 291 291 290 289 289 288 290 289 288 289
303 303 304 302 302 301 301 301 301 301 300 301 301 301 301 302 301 301 302 302 303 303 304 304 304 304 303 302 301 300 300 299 298 298 298 298 299 300 300 300 299 295 298 298 297 297 297 297 297 298 299 300 300 300 300 299 300 299 299 295 297 296 292 290 293 294 294 293 294 294 293 294 294 293 291 290 291 291 291 290 290 290 289 289 290 290 291
301 299 299 300 299 299 299 299 300 299 300 300 300 301 302 302 302 302 302 303 303 303 304 304 304 304 303 302 300 299 299 298 297 297 296 296 297 298 299 299 299 298 298 297 297 298 297 297 297 299 300 300 300 300 300 300 299 299 298 298 297 297 292 291 293 295 295 294 294 295 294 294 293 293 293 291 291 289 290 289 289 287 288 289 290 291 292
300 299 299 300 298 297 297 299 301 300 300 300 301 302 302 302 302 302 302 301 302 302 304 304 304 304 303 302 300 299 298 297 295 294 294 294 296 297 298 298 298 298 298 298 298 298 298 298 299 299 300 300 300 300 300 300 299 298 298 298 297 296 295 294 294 294 293 292 294 294 293 293 293 293 291 288 291 290 289 290 289 288 288 288 290 290 290
303 302 302 301 301 300 302 301 300 300 299 299 300 300 300 301 301 299 300 301 301 302 304 304 303 303 302 301 299 298 298 296 294 294 293 293 296 297 298 298 298 297 297 298 298 298 298 298 299 299 299 299 300 300 300 299 299 298 299 298 298 297 296 294 294 294 294 293 292 293 292 293 292 291 291 290 291 290 288 288 288 288 287 288 290 289 289
303 302 302 302 301 301 301 301 301 300 300 300 300 300 301 302 301 300 301 301 302 304 303 303 302 302 300 299 298 297 296 294 293 293 295 294 296 296 297 297 297 296 296 297 298 299 299 298 293 293 298 298 299 300 300 299 299 299 298 299 297 296 295 294 295 294 293 293 293 290 292 291 291 291 291 290 291 290 290 290 289 288 288 289 289 288 290
303 303 302 300 301 301 301 301 300 299 299 300 300 299 300 300 301 300 301 303 303 303 303 302 301 300 299 298 298 297 296 295 295 295 294 294 296 296 296 296 296 296 295 295 297 299 299 298 291 291 296 298 299 300 298 292 299 298 298 299 298 297 295 295 295 295 294 292 292 291 288 289 291 291 290 292 291 289 290 290 288 290 290 289 288 289 287
302 302 303 301 301 300 300 301 300 300 298 297 298 300 300 300 301 300 302 302 302 302 302 302 302 301 299 298 297 295 293 295 295 295 295 296 297 296 296 296 295 296 295 296 298 299 299 295 290 293 299 299 298 299 296 290 292 298 299 298 298 298 295 295 294 294 293 293 290 292 290 290 291 291 291 291 291 291 289 289 288 289 289 289 288 288 288
301 301 300 301 300 299 299 300 300 300 300 299 300 299 300 300 300 301 302 302 302 302 303 302 302 300 298 296 296 296 296 293 294 297 297 298 298 297 295 296 296 297 297 299 299 299 298 294 296 298 298 299 299 299 295 289 290 298 299 299 298 297 295 294 294 293 293 293 292 290 292 290 290 291 290 291 291 290 289 290 290 288 288 289 289 289 290
300 299 300 300 298 299 299 298 298 299 299 300 299 299 299 300 301 301 302 302 302 302 302 302 300 298 296 296 295 295 295 295 296 298 298 299 298 298 297 298 299 300 299 294 299 299 295 291 295 298 299 299 299 299 297 293 290 295 298 298 298 296 295 294 295 294 293 293 292 290 291 290 290 290 289 289 290 289 289 290 290 289 288 289 288 288 289
300 300 300 299 298 298 299 299 299 299 298 300 300 300 300 300 301 301 302 302 302 302 302 301 300 298 298 297 296 295 295 295 296 297 298 298 297 297 296 296 299 300 298 299 299 297 292 293 297 298 299 299 299 296 298 293 294 296 298 298 297 295 295 294 294 294 293 292 292 292 292 291 289 290 289 290 290 289 290 290 291 290 291 291 291 290 289
301 300 299 299 299 299 298 300 300 299 299 299 299 300 300 301 301 301 302 303 302 302 301 301 296 299 298 297 296 295 296 296 297 297 298 297 297 296 294 296 300 300 294 293 294 294 294 296 296 294 299 299 297 292 292 295 296 297 297 297 296 294 294 294 293 294 293 293 292 293 292 291 290 290 289 290 290 290 290 290 290 291 291 291 291 291 291
301 300 299 299 299 299 299 298 299 299 298 299 300 301 300 300 301 301 302 301 301 302 303 301 298 296 297 297 297 296 296 296 297 297 297 298 300 300 298 299 301 300 290 294 297 298 296 297 297 297 294 296 296 291 290 297 297 297 297 296 294 293 294 295 294 294 293 293 292 292 292 291 290 290 290 289 290 290 290 291 290 290 290 290 291 291 291
301 299 300 299 299 299 298 298 298 299 299 299 301 301 301 300 301 301 301 300 300 300 302 301 300 298 297 298 297 295 295 296 297 297 297 298 299 301 302 301 301 296 290 294 296 296 296 296 297 295 290 290 291 290 295 297 297 297 297 296 295 294 293 293 294 294 294 292 291 292 292 290 291 291 291 291 290 290 290 290 291 292 291 291 292 291 290
300 300 300 300 299 297 297 297 298 299 301 301 300 300 301 301 301 302 303 301 301 300 300 301 300 298 297 297 296 297 297 298 298 298 296 295 294 297 300 295 298 294 292 292 296 296 296 297 295 291 290 290 290 289 294 296 297 297 297 296 296 294 293 292 292 293 293 293 293 292 290 291 291 291 291 291 290 291 291 291 292 292 292 292 292 292 292
301 301 300 296 299 299 298 299 300 300 301 300 299 298 300 300 300 301 303 302 299 299 302 302 301 300 299 298 297 298 298 299 299 300 299 298 297 298 301 296 297 292 291 291 296 296 297 292 291 290 290 290 289 291 293 295 296 297 296 296 294 293 292 293 291 292 291 291 292 292 292 292 292 291 292 291 291 291 291 290 290 291 291 292 292 292 292
301 301 300 300 301 301 302 300 299 299 299 298 297 297 298 300 302 303 303 303 302 302 303 303 303 302 301 301 299 297 296 297 297 299 299 299 299 299 296 292 292 291 290 294 296 296 296 294 291 290 289 290 289 293 294 295 295 295 295 295 294 293 292 292 292 293 292 290 290 289 289 290 291 291 290 291 291 290 289 289 290 290 291 289 290 289 289
301 300 300 299 300 301 301 299 298 297 297 297 298 299 299 301 301 303 304 304 304 303 302 303 303 303 303 302 302 301 300 298 294 296 300 300 300 300 298 292 293 290 291 292 292 291 291 291 291 290 290 289 290 294 295 295 294 293 293 294 294 294 293 292 292 293 293 292 291 290 289 291 290 290 291 290 290 289 289 289 289 289 288 289 290 290 290
301 301 300 300 300 300 299 299 297 296 297 297 297 298 299 299 300 300 302 303 304 303 302 302 302 302 303 302 303 303 301 301 298 296 300 300 300 300 299 293 289 289 290 294 295 293 290 289 290 290 289 288 292 295 296 295 294 293 293 294 293 294 293 293 293 293 293 293 292 291 291 291 291 291 291 291 290 290 288 289 290 288 288 289 289 289 289
301 301 299 298 298 299 298 297 296 296 297 297 297 298 299 298 297 299 299 301 302 300 301 301 300 301 300 301 301 303 303 302 301 301 301 301 301 300 297 295 292 289 290 294 295 294 289 287 288 288 289 292 294 295 295 295 294 294 293 292 292 293 293 291 290 290 292 292 292 291 291 291 292 292 291 291 291 291 291 291 291 290 289 290 288 289 289
299 298 299 297 298 299 300 299 297 298 298 298 298 297 297 296 296 296 298 299 299 298 299 300 300 300 300 300 301 301 302 303 301 298 301 301 301 297 295 295 293 291 291 293 295 294 291 289 290 289 290 292 294 295 294 295 294 294 292 292 293 291 291 289 289 290 291 290 291 292 292 291 292 293 292 292 291 291 291 290 290 291 291 291 291 291 291
301 300 300 300 299 300 301 300 300 300 299 299 298 297 297 297 296 295 296 294 298 298 299 299 298 299 299 298 298 298 299 300 299 298 297 299 299 298 295 292 294 291 293 294 296 296 292 290 289 288 289 292 294 294 291 291 294 293 292 291 291 293 290 291 289 289 289 290 290 290 291 291 291 290 290 289 289 290 289 289 289 290 289 289 290 290 290
Wind_Speed
5 4 7 9 13 9 7 10 5 5 9 7 4 3 5 4 5 3 4 8 13 8 6 13 15 15 17 18 18 17 17 15 14 16 17 17 17 16 16 16 16 17 17 16 15 14 13 13 14 14 13 11 11 11 10 10 10 9 8 9 9 9 9 9 8 8 7 6 6 7 8 7 7 7 7 7 7 7 8 8 7 8 8 8 7 7 6
6 7 12 9 15 10 11 13 7 6 9 8 5 4 1 4 7 11 8 5 9 4 5 14 17 14 13 11 12 13 14 17 18 18 17 17 17 18 17 17 16 16 17 17 17 15 14 15 14 13 13 11 13 12 10 11 10 9 9 9 9 9 9 9 8 8 7 7 7 7 8 8 7 7 6 6 7 8 9 8 8 8 7 6 6 6 6
5 5 4 2 16 12 8 10 10 5 8 8 6 5 3 3 3 9 9 6 4 3 8 10 8 11 11 13 15 16 15 15 17 17 17 17 17 17 16 17 17 16 15 16 16 17 16 16 15 11 15 13 12 11 11 11 10 10 9 9 9 9 9 9 9 8 8 8 8 8 7 7 7 7 7 7 7 8 8 9 9 8 7 7 6 6 5
6 3 4 9 4 13 11 8 12 7 7 6 4 4 3 3 2 7 7 6 6 3 5 11 14 15 16 16 14 13 12 14 16 16 16 16 17 17 17 16 16 16 16 16 15 15 16 16 14 11 14 13 12 11 12 11 10 9 10 9 9 9 9 9 9 9 9 9 8 8 7 7 8 8 8 8 7 8 9 9 8 7 7 7 6 5 5
2 3 2 7 2 7 0 4 6 7 2 3 2 3 6 5 5 6 5 6 6 7 9 14 14 16 15 14 14 13 13 15 16 18 18 17 17 17 18 17 17 17 16 16 15 15 14 16 13 12 14 13 12 13 12 10 10 10 10 10 10 10 10 9 9 9 9 9 9 8 8 9 8 8 8 7 7 7 8 8 8 8 7 8 6 5 5
1 1 4 3 4 3 1 2 5 1 6 6 4 5 4 3 5 4 7 4 4 12 8 15 13 16 15 17 15 19 19 16 15 15 16 18 17 16 16 17 17 16 14 14 14 15 13 14 14 14 13 13 12 12 11 10 10 10 11 10 10 10 10 9 9 9 10 9 8 8 8 8 8 8 8 7 6 6 7 7 8 8 7 8 6 5 4
1 1 4 6 2 2 3 5 4 4 7 2 6 4 5 2 6 6 4 5 7 12 14 12 14 14 13 13 15 13 17 19 18 19 17 17 17 18 17 17 17 16 15 15 15 13 12 13 13 13 12 11 12 12 11 11 10 11 11 11 10 10 10 10 10 10 9 8 9 9 8 9 9 8 8 7 7 6 7 7 7 8 8 8 6 5 4
2 1 2 2 2 3 3 4 2 2 4 5 7 2 3 6 6 7 5 3 5 7 6 12 12 11 10 11 14 17 15 17 17 16 16 17 17 18 17 18 16 16 15 17 16 12 11 13 14 13 13 13 13 12 11 11 11 11 11 11 10 10 11 10 10 9 10 10 9 8 9 9 9 9 8 8 8 6 5 6 5 6 7 7 7 6 5
3 3 3 4 2 3 6 5 3 2 2 2 3 1 4 3 5 9 5 4 3 2 10 8 8 9 11 10 7 10 16 15 15 19 17 18 18 16 15 16 15 14 13 15 16 11 12 13 13 13 14 13 12 12 12 11 11 10 11 10 10 11 10 10 10 10 10 10 9 10 10 10 9 8 8 8 7 6 7 6 6 5 5 5 6 6 5
4 4 2 2 1 2 5 6 7 1 3 1 2 3 4 3 1 2 9 10 7 6 6 10 9 8 11 8 8 10 12 13 12 10 12 13 14 15 15 14 13 14 14 14 14 12 14 13 12 14 14 14 13 12 11 11 11 11 10 10 10 10 10 10 10 10 9 10 10 10 9 9 8 8 8 7 7 7 7 7 6 6 6 6 6 6 5
2 1 2 2 2 6 7 8 7 5 1 2 4 2 4 3 3 0 5 7 10 10 6 10 8 8 9 9 9 9 13 12 13 14 13 14 14 15 16 16 16 15 15 15 13 11 14 14 14 15 15 15 14 12 12 11 11 11 10 10 10 10 10 10 10 9 9 10 10 10 9 8 8 8 8 8 7 7 7 7 7 6 6 6 4 4 5
0 2 3 1 1 1 2 4 3 3 1 4 6 2 4 3 5 5 0 5 6 6 5 8 10 13 9 10 9 12 16 16 14 16 15 15 15 15 15 14 15 16 16 15 14 16 15 15 16 16 16 14 13 13 12 11 11 10 10 10 9 9 10 10 10 9 9 10 9 10 10 8 8 8 7 7 8 8 7 8 8 7 6 6 5 4 4
4 1 1 1 2 4 5 5 5 2 2 5 5 6 4 4 5 6 5 5 5 4 5 8 9 7 9 10 11 13 13 13 12 11 13 15 18 18 17 16 16 15 16 15 15 17 14 15 15 15 14 14 13 12 12 11 11 10 9 9 9 10 10 10 10 10 9 9 11 9 8 8 8 7 7 8 8 8 7 7 7 7 7 6 6 5 4
3 2 1 2 2 4 2 2 7 4 5 0 4 4 3 2 6 7 6 5 5 4 8 4 5 4 6 14 14 15 17 17 15 14 14 14 14 15 15 17 16 15 15 13 15 14 14 16 16 14 14 14 12 13 11 11 10 10 9 9 9 10 11 10 10 9 10 10 10 8 7 8 8 8 7 7 6 6 7 7 8 8 7 7 7 6 5
1 0 1 1 2 2 0 7 5 4 4 3 3 2 2 2 3 6 7 1 2 6 5 6 7 6 9 13 15 15 14 15 15 16 17 18 18 18 17 16 16 16 14 14 16 15 15 16 14 14 14 14 12 11 11 10 9 10 10 10 10 11 10 10 10 10 10 11 9 7 8 8 8 7 6 6 7 7 8 7 7 6 5 5 6 6 5
3 3 1 1 3 2 2 3 3 1 2 2 1 1 0 3 3 4 4 5 5 10 10 8 7 10 10 10 13 13 14 13 13 14 14 15 15 15 16 17 17 16 14 13 14 15 15 14 14 13 13 14 12 11 11 9 10 10 10 10 10 10 10 10 10 10 10 10 8 7 8 8 7 7 6 7 7 7 7 7 6 6 6 6 5 5 6
2 1 1 2 1 3 5 6 3 2 2 4 3 3 3 3 4 1 4 5 5 6 10 8 10 9 11 13 15 16 14 14 16 17 17 18 18 17 17 15 16 15 15 16 15 15 14 16 13 12 12 14 13 13 10 11 11 11 11 10 10 10 11 10 10 10 9 9 8 7 7 8 7 7 6 7 7 6 6 6 6 5 6 6 6 6 6
3 2 3 3 5 5 6 5 4 5 6 6 6 6 5 5 4 4 4 5 7 6 5 9 5 9 9 12 9 11 13 15 14 15 15 13 14 15 15 14 16 14 14 15 16 17 16 15 12 13 12 14 15 12 11 11 12 11 11 11 11 11 11 10 10 10 10 8 7 8 8 7 6 6 8 7 7 6 6 6 6 6 5 4 4 5 7
5 1 1 7 2 4 6 4 5 6 6 6 5 6 5 5 6 7 6 5 5 6 7 8 8 7 8 10 8 8 11 13 14 15 16 15 17 18 17 16 16 14 16 16 16 16 16 12 12 13 11 11 11 11 12 12 12 11 11 12 11 11 11 10 9 10 10 8 8 7 7 6 6 6 6 6 7 6 6 6 6 6 6 5 6 4 7
4 2 3 3 4 3 0 3 3 3 5 5 5 4 4 5 5 5 6 5 6 5 6 5 8 7 7 9 8 8 10 13 13 13 15 16 15 15 16 16 16 14 16 16 15 16 14 12 12 12 11 11 12 13 12 12 11 12 12 12 12 11 12 10 9 9 9 11 11 7 7 7 7 6 6 5 4 5 7 7 7 7 7 6 6 7 7
1 4 4 4 5 5 2 4 6 5 5 5 4 4 3 4 4 5 6 5 5 5 5 6 7 6 5 8 8 9 9 12 12 13 15 16 17 16 16 17 15 15 16 16 16 16 14 12 12 12 12 11 13 14 13 13 12 12 12 12 12 11 10 9 9 8 8 8 7 7 7 7 4 3 5 4 6 4 1 1 6 7 7 6 5 3 4
2 2 1 0 4 0 2 4 4 5 5 6 2 3 3 4 4 5 6 6 5 5 5 6 6 6 5 6 7 8 8 11 11 12 14 15 15 15 15 17 12 14 15 15 15 14 13 12 12 13 13 12 13 13 13 12 13 13 12 12 12 11 9 9 9 9 8 8 8 8 7 6 6 5 7 6 9 8 2 3 8 8 8 4 6 6 7
2 2 3 2 5 3 2 2 2 5 4 3 1 1 3 5 5 4 4 4 5 5 4 3 5 5 7 7 8 8 8 10 12 14 16 16 14 15 16 15 11 14 14 14 14 13 13 12 13 13 13 13 13 13 13 12 13 13 13 11 10 9 9 9 10 10 9 8 8 7 7 7 7 8 6 7 9 7 10 8 10 11 11 10 8 8 8
3 2 1 2 2 3 2 5 6 5 5 5 6 6 3 3 4 4 4 2 4 3 3 2 4 6 6 5 8 8 9 12 14 14 14 15 16 16 16 14 13 14 13 13 14 14 13 13 14 13 13 14 14 14 13 12 13 13 13 12 11 9 9 9 11 10 9 8 8 7 7 7 8 7 8 6 5 7 5 8 8 9 10 9 9 9 9
3 2 3 4 6 4 2 5 4 5 5 5 4 4 4 4 4 4 3 3 2 4 3 2 3 4 5 6 7 10 11 11 13 15 14 13 15 15 14 12 12 14 13 12 12 12 13 13 13 13 13 13 13 13 12 13 14 13 12 12 11 10 10 10 10 10 9 8 8 8 9 8 8 8 7 8 8 5 2 5 6 4 3 5 8 8 7
4 4 4 2 4 3 3 6 6 4 3 2 2 2 4 5 5 4 4 4 4 2 4 1 4 4 6 6 5 7 11 12 13 13 12 12 12 12 14 13 12 11 12 11 12 12 12 14 13 11 12 11 11 10 10 12 12 13 12 11 11 10 10 11 10 9 9 7 7 7 6 8 7 7 7 7 7 7 6 3 1 1 1 3 4 5 5
4 3 3 3 4 6 4 5 2 2 2 2 4 2 2 4 5 3 3 5 4 4 3 3 4 6 4 3 5 5 9 11 13 13 13 12 13 14 12 10 12 13 13 12 11 12 13 12 11 11 11 10 8 9 10 10 11 11 10 10 9 10 14 11 9 9 7 6 6 7 6 7 7 8 7 7 7 7 7 7 7 7 7 6 5 8 7
4 4 2 4 3 3 3 4 4 3 4 4 2 1 2 2 2 3 3 3 3 3 2 1 4 6 6 4 6 6 9 11 14 12 12 11 9 10 10 12 13 13 12 12 11 12 12 11 11 12 10 8 9 10 10 10 7 8 9 9 10 9 9 10 9 7 6 6 6 8 7 7 8 7 8 7 7 7 7 7 7 6 6 6 6 7 8
5 6 5 5 6 5 4 3 5 5 4 3 3 2 2 0 1 1 3 2 1 0 1 4 6 5 7 4 7 9 8 9 10 11 10 8 8 9 10 12 12 13 13 13 12 13 12 12 13 12 9 11 12 14 13 9 8 8 7 7 8 8 8 8 8 8 7 6 6 7 7 7 8 7 7 7 8 7 6 7 7 6 7 6 3 1 2
5 6 5 4 4 4 4 3 5 4 2 1 1 1 0 0 0 1 0 4 2 2 2 7 6 6 6 7 5 8 10 9 9 8 9 10 11 11 11 11 11 10 11 13 14 13 13 13 13 13 12 13 14 14 11 11 11 11 10 9 9 9 9 9 8 8 7 7 7 8 7 7 7 8 8 8 8 8 8 8 8 8 7 6 6 7 7
6 6 6 3 4 2 4 5 4 4 3 3 3 2 2 1 2 1 2 1 4 5 5 8 7 7 7 8 6 6 7 7 7 7 7 10 12 13 15 16 15 12 12 12 13 14 14 13 13 13 12 13 12 12 12 11 8 7 6 6 7 11 13 13 10 8 6 7 8 7 7 6 7 7 7 9 9 7 8 8 8 8 8 7 7 7 9
7 5 4 0 1 2 6 4 4 4 4 2 0 0 1 0 1 3 2 1 5 6 7 8 7 7 7 8 8 8 8 8 8 7 6 5 7 12 16 17 17 15 14 13 13 14 14 14 14 13 12 13 14 13 13 12 8 8 8 7 8 8 10 13 9 8 7 6 7 8 7 7 7 6 7 7 9 9 9 9 9 9 8 8 8 8 9
6 3 2 2 2 3 4 4 6 5 5 4 3 3 3 1 3 2 2 1 5 7 8 8 8 8 8 9 9 8 8 8 7 7 6 5 5 3 3 5 10 13 13 12 14 15 16 16 14 13 13 13 13 13 13 12 12 9 9 8 7 9 9 10 10 7 7 7 6 7 7 8 7 6 7 8 7 8 9 9 9 8 8 9 9 9 9
5 4 3 3 5 3 2 3 6 6 5 4 1 0 1 2 2 4 2 2 6 6 9 8 8 8 9 10 9 9 9 9 8 6 5 5 4 4 5 7 9 11 11 12 11 10 10 12 14 13 14 13 13 12 11 12 11 9 8 7 7 9 9 9 10 8 6 6 7 7 7 8 7 7 5 6 7 8 8 8 8 8 7 7 8 8 10
5 3 5 7 5 5 7 7 5 5 5 4 2 4 1 1 3 3 4 4 5 6 8 9 8 7 9 10 10 8 8 9 9 8 6 5 5 6 8 10 10 10 10 11 13 12 13 15 14 14 14 13 13 12 11 13 11 9 7 7 6 7 9 8 8 8 8 7 5 7 7 8 7 7 7 6 6 7 8 8 8 8 8 7 7 7 7
5 2 1 4 5 7 6 7 6 5 5 5 4 3 2 1 4 5 5 5 5 8 8 8 8 7 8 10 9 8 8 8 8 8 8 6 6 6 8 11 12 12 12 9 7 10 12 12 15 16 13 12 11 12 12 12 10 8 7 6 5 7 9 9 8 7 7 7 6 6 7 8 9 9 8 7 6 6 7 7 7 8 8 8 8 7 7
4 4 3 4 2 5 5 6 5 3 3 2 2 1 1 4 5 5 6 7 8 8 7 7 8 8 7 6 6 6 7 9 9 9 9 8 7 8 8 9 11 13 13 12 9 10 11 12 15 17 13 11 11 11 13 15 10 8 6 5 5 6 8 8 8 7 7 6 7 6 6 8 7 8 8 8 7 7 7 8 8 8 7 8 8 8 8
5 3 1 3 2 5 5 4 4 4 5 4 3 5 5 4 5 6 6 7 6 7 7 6 6 7 7 7 7 7 6 7 8 9 9 10 10 9 9 10 11 11 12 12 11 11 10 14 17 12 10 10 11 11 12 14 13 9 7 7 6 5 6 8 8 8 7 7 6 7 7 7 8 8 8 8 8 8 7 7 8 8 8 7 7 7 7
5 1 1 3 4 4 4 4 4 5 4 6 6 5 5 6 5 6 6 6 5 6 6 7 7 7 7 7 7 6 6 5 8 10 9 9 9 10 9 7 6 6 5 8 11 10 11 13 11 11 10 10 11 10 11 13 12 9 8 7 5 6 7 7 8 8 9 8 8 8 7 7 7 7 8 8 8 9 9 9 8 8 8 8 8 8 8
1 1 1 5 5 4 4 5 5 4 4 3 5 5 4 4 4 6 7 6 5 5 5 7 8 7 5 6 7 7 6 7 7 9 9 9 8 8 7 6 7 7 7 11 10 9 12 16 13 10 9 10 11 10 9 12 11 7 7 7 7 7 7 7 9 9 9 8 9 9 8 7 7 7 7 8 8 8 7 7 7 7 7 7 8 8 8
2 1 2 6 5 4 4 4 4 4 4 4 3 5 4 4 2 5 7 7 5 5 5 5 8 7 7 6 6 6 6 6 6 7 7 8 9 9 9 9 8 8 9 11 10 10 13 12 12 10 8 9 9 10 8 10 9 7 7 8 8 8 8 8 9 10 9 9 9 8 9 8 8 7 7 7 7 8 7 7 8 8 8 8 8 7 7
1 4 5 4 4 4 4 4 4 4 3 4 4 4 4 4 3 2 7 7 6 4 5 6 8 9 7 7 6 7 6 6 7 7 7 9 9 8 9 7 8 8 10 12 11 11 11 12 12 10 10 9 8 11 9 7 6 6 7 9 9 7 8 8 8 9 10 9 9 9 9 9 8 8 8 8 8 8 8 8 8 8 8 8 9 9 8
2 3 4 4 4 5 5 4 4 4 4 4 4 4 4 4 3 3 5 6 5 5 6 6 8 10 9 8 8 7 6 6 7 6 5 5 6 7 8 6 8 10 15 13 12 10 11 11 11 10 12 11 9 11 11 7 5 6 7 8 8 8 7 7 7 7 8 9 9 9 9 9 9 9 8 8 8 8 8 8 8 8 8 8 8 8 9
3 3 3 3 2 2 3 4 4 4 3 3 4 4 5 4 2 1 2 4 4 4 7 8 8 8 8 8 8 7 7 8 8 7 6 6 7 7 9 7 8 12 17 12 11 10 10 10 10 13 14 14 14 14 10 7 8 8 8 9 9 9 8 7 7 7 7 7 8 9 9 9 9 9 9 9 8 8 8 8 8 8 8 8 8 8 8
2 2 4 3 3 4 3 4 4 3 2 3 5 5 5 4 2 0 0 3 4 3 8 8 9 9 8 8 8 8 9 8 8 8 9 8 8 8 9 9 10 9 13 13 9 9 9 10 12 15 13 14 14 14 9 9 10 10 10 10 11 10 9 8 6 6 7 7 8 8 8 8 8 9 9 9 9 9 9 9 9 9 9 9 8 9 9
4 3 3 6 4 5 4 3 3 4 3 4 4 4 4 4 3 1 0 2 4 3 8 9 9 10 9 8 7 7 6 7 6 6 6 6 7 5 7 8 8 10 16 16 10 10 9 14 16 16 17 18 16 11 8 9 10 11 11 11 10 10 9 8 7 5 6 5 7 8 8 8 8 8 8 8 8 9 9 9 9 8 8 8 8 9 9
3 4 4 3 0 0 1 4 4 5 3 3 5 4 4 3 1 2 2 1 3 4 6 7 6 10 10 10 10 9 8 6 5 6 6 6 5 6 7 10 12 15 17 13 10 10 10 12 15 17 18 18 16 10 10 10 10 10 11 10 9 8 8 8 7 7 7 6 6 7 7 8 8 8 8 8 8 8 8 8 9 8 8 9 9 9 9
3 3 5 4 1 1 0 3 5 4 4 4 5 7 4 4 1 2 2 2 1 2 4 5 4 7 11 10 10 10 11 10 9 8 8 8 7 7 6 5 8 12 17 15 15 12 17 18 19 19 19 16 12 10 10 10 9 9 8 8 8 8 7 7 7 7 8 8 7 7 6 6 6 6 6 7 8 8 7 8 8 7 7 8 8 8 7
2 2 5 5 2 1 2 0 3 3 2 4 4 6 6 5 4 3 3 2 1 1 2 2 3 4 6 9 10 9 9 10 11 10 10 9 8 8 7 7 12 15 12 10 10 9 11 16 19 20 20 15 10 10 9 9 9 7 7 7 7 8 8 8 8 8 8 8 8 8 8 8 7 7 7 7 7 7 6 6 7 6 6 7 8 8 8
2 2 5 5 2 2 3 2 1 3 3 3 5 7 7 5 6 5 4 3 3 3 3 3 3 3 4 4 7 8 9 9 8 7 8 9 8 8 8 8 8 12 14 11 8 8 8 13 15 17 16 11 11 10 8 8 8 7 7 8 8 8 8 9 8 9 9 9 8 8 9 8 8 9 9 8 9 9 9 9 8 10 12 9 9 8 8
3 3 3 4 3 3 4 4 4 3 2 3 3 6 7 7 7 6 6 7 7 5 4 4 4 4 4 4 4 4 7 9 8 8 8 8 8 8 10 9 10 10 11 11 9 8 7 7 7 10 12 11 10 9 9 9 8 8 8 7 7 7 8 9 7 8 7 8 9 9 9 9 9 9 9 9 10 9 9 9 9 8 8 8 8 8 8
5 3 3 4 5 4 5 3 3 5 4 3 3 8 8 7 7 6 6 7 6 6 5 5 6 5 5 6 6 6 4 7 6 6 8 8 7 7 10 12 9 11 11 10 10 8 8 8 8 10 11 10 8 8 9 11 10 9 9 8 7 8 8 8 6 6 6 6 7 8 9 9 8 9 8 8 8 8 8 7 7 7 9 8 7 7 7
Wind_Direction
284 274 222 176 181 206 199 225 217 188 201 227 160 181 220 122 135 160 197 152 153 191 195 153 164 154 157 161 158 156 151 143 138 143 149 154 156 156 157 159 156 156 158 158 158 160 163 160 159 156 160 155 145 151 149 146 151 151 146 141 139 137 135 136 138 137 134 130 126 122 117 112 107 102 101 100 98 101 107 108 105 104 101 96 93 85 76
288 275 272 196 184 185 191 211 221 191 186 221 165 188 217 159 153 151 164 166 171 166 168 138 158 154 144 138 129 130 140 149 148 149 152 155 158 160 161 160 160 161 160 161 161 163 163 166 166 157 157 152 149 151 147 144 147 147 142 142 143 142 142 142 139 137 133 128 126 122 119 120 119 115 108 102 96 97 101 102 102 98 94 94 92 92 83
276 259 274 230 178 167 194 197 227 202 186 209 197 179 162 87 91 146 140 128 195 254 147 124 124 120 110 120 139 149 146 145 149 151 154 157 160 161 160 161 162 162 163 165 164 164 163 166 172 152 153 154 148 144 144 146 147 148 144 147 145 144 144 142 139 135 131 130 127 127 128 125 122 117 113 109 104 102 102 103 100 98 96 93 86 81 81
278 305 358 341 228 171 178 188 211 215 177 192 205 179 195 129 171 144 124 126 189 264 141 119 124 133 136 143 146 144 151 153 149 152 157 159 162 163 164 164 162 164 166 167 167 166 162 165 170 149 151 149 145 146 146 149 150 148 146 147 144 144 144 142 140 137 136 134 133 133 128 123 119 117 114 109 108 108 109 108 107 106 104 99 95 90 83
276 291 27 311 58 54 84 244 220 192 182 154 176 188 154 170 145 120 146 205 216 164 151 130 136 141 145 143 148 149 152 157 157 160 163 165 166 166 164 166 168 167 168 168 167 166 160 167 160 147 149 146 146 148 149 150 149 148 146 147 145 146 148 146 144 141 140 139 140 136 132 128 123 121 118 116 115 115 118 122 119 118 115 106 101 100 91
246 306 0 4 46 55 234 246 288 201 179 163 144 210 174 201 135 198 177 185 130 125 145 138 154 146 159 163 169 159 157 159 166 166 166 168 167 165 166 167 168 169 166 167 168 168 162 162 154 147 150 145 142 144 145 148 149 150 147 149 150 151 150 148 146 144 143 143 141 138 133 127 124 121 121 121 120 118 114 116 124 127 124 120 118 111 105
266 339 37 35 33 218 242 271 289 56 52 73 187 194 169 156 133 119 125 132 113 160 151 157 164 168 162 154 151 164 163 159 164 168 168 168 167 167 166 167 171 171 167 163 165 165 162 152 152 146 143 139 142 146 151 151 150 150 151 151 154 154 150 149 146 146 146 141 139 136 129 125 122 123 123 121 118 119 117 120 124 127 128 126 127 121 114
20 40 59 83 243 242 287 304 335 31 75 68 56 352 225 155 153 142 142 200 165 150 172 162 166 152 141 142 156 161 167 166 163 162 169 169 166 168 170 167 168 169 165 161 164 164 156 144 152 151 148 147 148 152 151 150 151 152 153 154 155 153 150 151 149 147 143 140 137 131 128 127 129 133 134 135 133 131 120 117 115 114 122 127 127 128 122
137 181 125 198 311 333 332 354 353 61 109 60 119 150 285 248 188 155 175 189 233 148 157 169 158 143 133 132 167 174 167 171 169 165 166 165 170 166 163 163 163 163 156 158 164 157 155 153 149 148 151 149 147 149 151 152 153 154 155 156 156 153 151 149 146 144 142 139 134 132 132 135 139 140 136 131 128 124 119 120 114 107 113 120 130 128 123
113 126 76 9 12 241 275 253 266 213 139 107 153 102 306 313 338 178 155 171 204 214 146 171 170 139 124 146 186 184 175 164 159 157 153 155 153 155 155 154 154 156 157 161 164 153 157 150 142 146 149 147 146 148 150 153 153 157 156 158 156 151 151 148 144 143 141 138 136 135 136 140 139 136 131 127 128 127 126 124 114 116 108 102 114 131 133
64 112 130 200 170 244 213 233 249 275 185 101 84 60 292 273 336 86 169 191 189 198 176 177 144 138 163 188 187 182 160 162 157 153 154 154 155 154 155 155 156 157 158 161 156 151 158 149 147 146 145 144 145 150 154 155 157 158 159 157 156 152 149 145 142 140 138 136 136 136 136 139 138 137 137 139 138 130 132 128 130 125 113 110 113 119 137
198 140 149 223 212 193 271 242 239 241 71 80 64 163 263 276 344 341 162 187 194 201 177 148 158 166 177 190 199 169 164 162 158 156 157 151 150 154 154 153 154 156 157 157 154 161 159 153 149 147 146 147 149 153 157 157 159 160 160 159 152 144 140 140 139 137 138 137 137 138 140 139 140 142 143 136 142 143 145 143 142 139 134 134 137 152 148
271 288 248 47 300 282 251 190 190 176 66 78 91 190 235 287 334 334 330 228 200 168 140 148 171 218 191 175 158 151 139 137 146 152 154 154 151 153 156 155 152 156 162 160 159 162 154 148 150 148 147 148 153 157 158 159 162 160 156 148 143 141 139 136 137 137 136 138 137 139 142 143 143 140 139 144 150 150 145 142 141 144 147 153 154 168 165
210 221 140 204 223 240 242 120 118 112 61 233 202 236 215 332 348 323 317 255 221 158 151 151 138 166 150 140 142 145 156 158 153 148 142 142 144 149 150 152 154 157 161 154 154 153 150 151 151 151 150 152 154 158 159 162 161 153 146 142 139 138 137 138 136 135 135 135 136 138 140 136 135 139 151 149 144 134 138 138 142 150 157 160 165 173 177
234 55 165 71 106 277 98 101 51 53 118 224 218 322 343 49 14 3 338 330 235 120 103 116 128 121 125 139 146 150 145 144 148 151 148 152 153 153 151 155 159 157 161 154 156 151 152 151 151 153 153 153 155 155 158 159 152 146 142 141 140 138 137 136 136 136 137 137 137 139 138 138 139 147 142 128 134 136 135 137 145 156 163 168 167 176 174
156 161 162 184 221 241 338 97 152 201 156 199 210 110 355 330 48 37 42 24 99 121 125 130 123 125 121 130 138 141 147 144 142 147 145 146 147 151 156 157 158 157 157 151 149 151 154 153 155 157 153 155 154 154 157 155 144 141 140 141 138 134 134 134 134 136 136 136 135 138 140 139 140 139 131 134 134 135 141 146 161 164 182 181 174 175 164
122 195 173 270 279 76 48 78 113 118 66 37 29 88 80 53 355 346 85 80 54 98 125 122 122 121 138 146 149 147 153 150 147 151 155 157 156 155 157 155 157 160 158 153 148 152 155 156 159 156 150 152 152 154 159 149 146 144 144 138 134 134 136 137 137 138 133 135 138 138 142 140 143 140 136 136 137 152 149 160 167 170 188 176 173 181 149
81 73 147 107 30 32 45 49 71 70 36 19 45 54 45 15 14 26 98 108 99 78 89 105 100 129 141 138 146 141 146 152 150 145 147 148 147 148 151 149 157 158 154 154 152 155 158 160 152 158 152 152 154 156 152 147 145 145 139 134 135 139 139 140 141 138 135 138 138 141 140 142 145 146 144 146 154 167 160 172 171 174 196 184 182 166 151
74 105 359 79 27 348 28 50 43 59 60 47 34 39 33 29 22 18 23 95 106 106 98 110 119 125 133 131 138 129 134 146 149 149 150 153 154 156 158 155 158 157 158 161 160 158 163 158 149 155 148 148 146 145 149 147 144 142 138 138 139 140 143 143 142 140 141 144 143 144 143 141 141 148 158 159 165 173 175 181 189 193 188 177 161 156 150
113 169 106 113 141 163 178 48 33 79 79 51 37 46 44 35 24 22 11 48 74 81 82 102 117 133 127 130 138 132 136 148 150 150 151 152 153 158 156 157 161 156 162 165 159 160 161 157 149 148 147 147 146 148 147 146 143 139 141 144 145 147 147 145 143 146 145 149 146 145 152 146 151 165 181 181 159 157 181 186 171 167 166 161 161 161 155
41 52 29 42 58 25 29 85 70 74 78 76 24 3 28 59 36 12 21 47 84 90 109 95 107 122 129 138 141 133 134 145 148 148 153 154 155 154 157 163 163 160 165 165 161 159 157 157 150 146 149 148 151 151 151 149 144 142 144 143 144 146 147 144 147 148 149 152 151 147 148 149 147 171 187 132 117 115 55 179 148 142 115 107 110 120 124
26 158 215 93 95 17 354 41 80 76 73 82 63 329 13 55 59 42 51 35 65 86 99 110 109 127 137 139 135 139 136 146 142 140 144 151 153 157 158 165 161 159 165 160 163 158 153 154 151 151 153 151 154 154 152 149 145 145 146 146 148 151 150 148 148 149 154 158 157 154 139 128 111 60 27 123 151 135 115 77 92 115 131 140 151 123 98
177 236 222 183 143 128 115 105 78 81 64 68 56 40 83 53 55 77 78 50 49 70 61 95 113 133 140 148 137 140 140 138 144 145 145 151 155 156 159 160 158 158 160 158 154 145 152 151 154 155 154 153 155 156 153 150 148 148 148 149 151 152 151 155 157 158 160 161 165 147 137 134 117 115 110 34 33 97 134 128 112 103 107 125 122 119 130
108 120 105 89 102 144 93 54 48 43 34 56 45 9 34 98 88 44 65 93 112 75 77 81 113 125 119 114 123 124 127 139 142 148 148 152 154 155 159 160 153 150 152 153 149 148 150 152 155 156 154 157 157 158 153 149 150 150 152 152 156 157 155 153 155 158 162 162 159 143 146 142 132 134 119 111 72 31 69 111 113 127 135 131 121 118 123
162 157 101 78 103 103 106 100 88 64 63 87 81 48 35 45 51 56 52 46 49 124 105 102 101 111 117 101 113 121 132 140 144 147 144 142 151 156 160 151 149 150 151 148 146 146 151 152 154 157 156 160 158 158 152 152 153 152 155 156 154 154 151 152 157 161 162 166 171 157 154 150 150 146 140 141 137 132 56 53 95 96 119 133 144 146 147
127 107 94 88 96 93 91 71 44 44 29 48 92 61 15 41 32 47 55 54 22 79 125 88 116 124 129 116 129 132 128 148 149 145 142 146 153 158 164 159 151 147 146 146 146 148 150 153 152 151 152 154 155 150 148 152 152 151 155 155 153 153 156 159 161 166 172 170 170 166 150 158 157 152 155 154 157 152 149 133 79 301 220 207 188 170 179
94 113 121 121 68 49 57 119 144 74 69 21 77 94 47 30 18 11 66 43 42 37 102 99 138 146 113 133 147 134 137 140 143 150 158 157 162 167 163 150 149 148 147 144 145 145 143 140 138 141 144 147 137 135 142 142 146 150 150 148 144 146 151 159 164 172 173 169 165 171 159 162 163 161 164 167 157 157 161 170 187 195 214 233 231 199 202
100 64 104 144 158 133 134 133 152 126 85 74 41 334 69 37 9 355 65 50 14 5 25 68 83 77 83 103 113 108 119 132 146 155 152 156 156 154 147 147 146 146 143 139 138 136 135 133 133 136 135 121 119 127 127 127 132 137 139 139 143 150 159 162 159 172 185 176 173 176 173 166 169 170 168 161 163 174 179 175 178 200 226 226 219 225 218
88 74 63 93 122 129 114 82 80 72 54 4 354 100 118 67 231 280 119 132 247 333 1 47 69 103 106 85 111 122 122 125 131 142 142 137 137 137 136 137 138 138 136 136 137 137 134 130 132 130 122 124 126 128 133 142 130 127 125 127 144 153 161 168 171 173 184 185 173 171 178 171 170 177 171 168 173 167 170 174 192 206 208 217 208 222 215
109 115 114 124 117 117 112 111 105 111 140 244 55 12 342 62 233 276 231 196 143 111 88 97 98 83 93 91 93 122 132 138 136 132 132 132 132 130 127 122 116 120 129 138 140 136 131 131 133 132 135 138 140 140 137 126 130 141 148 158 164 167 168 173 172 174 176 188 189 179 174 182 182 175 171 174 173 174 175 189 195 199 211 210 195 197 204
86 82 94 117 157 187 139 134 130 132 119 78 36 7 13 43 5 245 306 193 102 73 81 112 112 100 88 98 93 84 91 96 103 113 123 133 136 138 139 139 138 149 152 150 144 138 133 132 131 134 141 139 138 133 127 122 123 144 171 164 168 172 174 177 180 181 176 177 186 188 192 184 185 180 172 157 178 178 184 191 196 205 211 202 197 200 214
100 102 114 258 234 152 127 144 128 108 96 99 71 307 287 146 315 295 321 175 127 115 106 107 101 105 106 103 100 93 91 89 89 89 88 98 137 153 157 157 155 151 147 145 142 140 137 134 137 141 140 137 139 132 127 131 156 178 190 179 171 175 178 179 187 192 185 181 175 188 192 188 192 177 180 170 168 182 189 190 199 207 208 197 203 207 217
125 146 195 240 215 179 146 148 129 129 118 92 54 17 5 36 6 333 28 130 115 100 107 110 111 111 111 106 102 100 97 94 87 85 88 92 95 94 87 116 134 138 143 148 147 145 143 140 139 140 139 140 135 132 134 156 187 188 184 178 170 174 176 184 189 189 194 195 183 184 183 188 184 174 181 189 189 185 188 193 191 190 193 187 192 206 203
157 174 165 196 169 155 130 123 112 114 95 90 74 57 32 353 352 341 350 105 102 96 108 120 120 120 115 116 116 114 115 108 108 111 110 108 100 89 103 124 131 131 128 124 117 115 120 130 138 142 143 138 137 140 155 183 197 197 190 180 163 171 180 189 194 189 184 189 195 183 178 181 184 186 183 187 189 184 189 195 200 200 204 213 214 209 208
87 103 106 105 125 124 102 98 100 117 132 144 93 49 359 347 73 43 42 96 109 124 116 118 121 114 109 117 124 131 136 140 144 138 128 115 104 112 120 119 118 117 124 134 141 143 148 147 146 143 139 142 149 160 180 193 193 194 191 180 160 170 185 192 192 197 194 197 174 175 184 182 190 192 198 189 193 194 187 191 197 202 208 215 229 225 223
93 83 28 80 95 101 117 130 127 123 108 121 144 169 236 201 80 57 66 82 91 91 101 108 106 97 103 122 135 142 139 138 138 136 127 121 119 121 127 133 136 136 136 135 149 145 147 147 143 142 145 156 164 177 190 191 191 185 186 183 176 166 183 189 196 196 201 193 183 174 181 192 189 193 197 204 199 195 198 201 204 201 202 212 220 226 231
70 53 36 33 28 108 93 82 118 119 114 106 121 117 84 104 97 83 83 83 87 97 102 99 99 105 111 107 118 125 131 138 142 142 138 132 130 132 141 142 147 148 149 152 164 157 152 151 151 151 154 163 172 186 185 184 186 182 179 192 201 177 177 186 191 189 194 199 202 190 180 188 201 201 200 200 205 205 200 205 211 211 214 216 220 219 219
91 63 61 60 88 89 78 98 108 104 116 117 105 88 106 108 103 92 93 98 95 102 105 104 105 103 100 99 105 121 129 133 134 136 137 140 145 144 155 162 163 162 167 168 158 159 159 159 159 160 164 176 183 184 175 174 175 180 193 198 203 179 176 182 183 187 189 196 203 208 200 183 190 203 206 206 208 210 206 204 202 212 220 223 223 221 215
109 121 36 65 72 72 65 46 71 95 101 83 75 75 64 87 93 99 101 108 105 105 101 103 104 99 109 112 116 122 132 140 144 146 148 148 156 158 168 172 169 159 141 142 158 160 153 157 167 170 182 185 187 184 177 175 174 184 193 205 203 196 190 186 187 190 193 193 194 202 210 206 196 195 202 207 208 212 214 214 214 209 208 215 215 223 224
101 145 145 131 113 110 93 85 68 54 49 86 115 119 122 92 94 100 105 110 115 106 110 117 116 118 113 116 126 136 148 152 155 154 152 151 152 151 149 167 171 162 152 154 163 164 162 162 168 185 189 186 183 183 179 182 182 189 195 203 214 215 202 188 187 191 196 191 197 200 205 208 211 208 203 204 205 207 210 214 216 220 222 222 217 216 214
149 186 87 90 91 72 87 107 103 85 54 18 90 128 122 114 111 111 132 137 146 146 136 123 128 130 136 141 142 145 148 156 158 160 151 149 161 171 171 180 172 167 160 164 171 165 167 173 184 187 191 183 185 182 180 181 187 201 208 214 217 212 206 190 185 191 190 194 196 198 207 210 210 214 215 211 210 209 212 215 218 222 220 225 230 230 226
172 110 99 87 102 109 107 90 104 97 102 93 89 91 95 93 69 112 145 143 149 140 130 128 134 136 135 130 128 135 147 159 161 169 167 170 173 169 172 184 167 168 165 166 168 162 172 185 193 194 189 188 184 186 172 159 177 195 213 217 226 217 205 190 181 182 188 189 193 200 204 205 205 210 210 212 214 216 213 214 219 222 225 224 226 228 229
133 122 140 157 160 144 127 136 151 146 129 109 106 112 96 75 56 64 127 138 136 144 140 127 123 122 127 130 136 145 158 162 166 169 164 171 177 180 176 174 167 171 163 172 177 178 181 188 189 198 194 190 186 183 181 181 186 206 222 228 227 217 214 197 186 179 175 181 190 196 197 202 205 208 207 208 212 214 214 215 216 218 218 218 221 226 231
124 126 97 74 66 102 120 124 123 116 120 153 128 122 119 107 104 59 129 151 157 134 138 142 135 134 137 142 144 150 165 171 172 171 167 168 183 186 188 183 179 173 170 175 179 178 182 187 190 195 194 189 187 185 189 202 208 215 225 231 230 220 207 200 199 192 187 184 184 190 195 197 201 206 208 212 216 216 214 215 218 219 223 224 225 220 219
114 122 141 166 132 107 94 95 108 130 145 149 131 124 135 136 135 92 76 159 158 130 136 145 141 148 151 156 164 171 171 173 176 170 166 179 190 198 190 185 174 163 178 173 176 179 184 186 192 190 192 194 196 191 194 204 210 215 220 222 225 220 212 194 187 196 205 200 196 197 196 193 196 201 207 211 209 210 211 212 216 217 218 224 226 231 233
143 140 99 84 104 130 148 172 177 167 165 130 100 94 118 139 150 194 328 152 164 153 153 161 155 160 157 160 155 157 158 168 186 196 206 202 188 192 178 173 171 168 177 178 182 186 188 189 189 190 194 200 199 193 202 209 216 217 215 211 207 204 203 204 201 198 196 205 212 207 206 210 207 204 199 200 206 212 220 219 220 222 219 221 223 225 228
146 133 123 116 80 170 222 163 161 129 131 118 122 134 119 103 119 187 234 205 173 163 157 182 160 158 166 157 159 154 164 174 194 201 206 213 208 224 188 166 174 174 171 179 185 189 190 190 189 192 194 198 194 198 205 213 213 209 200 193 192 191 195 200 206 216 218 213 208 208 208 203 207 214 218 222 218 214 217 217 220 222 217 216 220 223 225
132 137 134 130 172 225 76 87 118 142 177 182 162 152 157 132 180 238 203 188 148 166 166 174 195 158 168 170 165 169 166 166 175 203 199 205 202 210 193 156 171 177 179 181 187 190 184 184 191 194 198 192 185 196 199 202 200 197 189 186 182 186 192 196 203 210 220 223 220 220 222 222 219 218 218 217 224 223 220 217 221 224 226 222 226 223 223
126 140 144 142 151 138 130 79 115 136 162 148 135 152 166 160 173 202 182 167 229 252 210 200 177 186 171 170 167 171 175 174 171 187 193 193 192 197 201 172 171 170 178 189 193 203 182 178 188 194 193 185 190 193 192 194 191 188 188 187 188 189 191 197 203 203 205 212 216 216 218 220 225 225 231 230 232 231 224 224 226 222 232 234 238 240 238
133 105 113 123 130 145 145 154 184 196 220 189 170 161 170 154 162 186 168 187 209 207 217 215 214 196 191 179 157 163 174 184 190 178 176 185 184 184 184 171 172 175 178 189 199 194 186 177 180 186 184 187 190 188 189 189 193 189 188 192 196 201 198 196 200 202 204 206 204 205 208 214 220 223 223 228 230 233 235 237 238 240 236 228 225 226 226
136 143 164 157 175 186 175 172 190 175 228 238 172 140 142 156 177 179 181 177 192 205 217 213 207 195 178 189 195 176 158 178 185 180 183 192 189 175 177 177 175 178 184 185 186 189 179 177 177 178 184 188 189 191 188 190 193 199 198 199 196 198 202 203 201 208 207 206 206 208 210 214 214 217 218 220 222 226 227 229 231 234 238 239 236 234 233
156 185 188 169 176 181 172 181 172 163 214 229 175 157 167 177 177 181 179 177 177 199 198 183 210 216 185 178 183 204 191 169 165 169 183 191 175 171 180 174 174 181 182 187 189 185 183 186 176 179 184 191 197 194 196 195 194 197 203 206 207 207 205 206 200 198 206 212 212 217 213 208 204 208 212 211 211 214 219 220 222 226 229 235 242 242 242